Date,TemperatureHighF,TemperatureAvgF,TemperatureLowF,DewpointHighF,DewpointAvgF,DewpointLowF,HumidityHigh,HumidityAvg,HumidityLow,PressureMaxIn,PressureMinIn,WindSpeedMaxMPH,WindSpeedAvgMPH,GustSpeedMaxMPH,PrecipitationSumIn
2013-3-1,68.5,48.3,27.0,28.0,21.3,14.0,74,40,13,30.28,30.11,12,2,22,0.00
2013-3-2,65.1,48.2,32.8,31.0,28.0,25.0,74,48,27,30.41,30.20,10,2,14,0.00
2013-3-3,76.9,58.0,32.8,34.0,29.4,26.0,78,40,17,30.20,29.77,19,6,24,0.00
2013-3-4,88.9,71.8,55.8,44.0,32.1,9.0,61,30,5,29.77,29.60,14,4,25,0.00
2013-3-5,71.6,53.8,37.2,41.0,20.7,6.0,62,32,11,30.34,29.65,15,6,28,0.00
2013-3-6,64.3,45.3,24.4,21.0,15.3,9.0,63,34,12,30.43,30.17,8,1,14,0.00
2013-3-7,70.4,55.9,36.7,55.0,38.3,18.0,78,53,36,30.18,30.01,15,5,20,0.00
2013-3-8,67.8,62.3,58.1,61.0,58.2,54.0,95,86,76,30.05,29.90,16,5,21,0.01
2013-3-9,77.2,67.6,57.8,64.0,61.2,56.0,94,80,61,29.89,29.51,18,8,22,0.81
2013-3-10,62.1,55.1,42.3,56.0,37.7,29.0,94,55,32,30.08,29.68,15,4,21,0.00
2013-3-11,70.1,51.2,31.9,31.0,27.1,23.0,79,44,19,30.16,29.95,7,1,13,0.00
2013-3-12,81.0,58.6,38.6,40.0,31.1,25.0,71,41,13,30.19,29.98,15,2,17,0.00
2013-3-13,75.8,59.2,40.7,41.0,36.3,32.0,72,45,26,30.37,30.19,14,3,18,0.00
2013-3-14,76.7,63.4,50.5,49.0,44.6,36.0,85,52,33,30.29,30.12,13,4,17,0.00
2013-3-15,80.2,66.9,53.2,53.0,49.3,44.0,87,56,34,30.14,29.88,13,5,21,0.00
2013-3-16,85.0,71.5,57.3,61.0,52.6,48.0,79,54,31,29.88,29.61,18,6,20,0.00
2013-3-17,83.4,70.2,60.4,60.0,56.9,50.0,89,65,39,29.71,29.55,9,2,16,0.00
2013-3-18,82.6,67.8,53.2,56.0,46.2,36.0,93,52,21,29.88,29.61,11,2,16,0.00
2013-3-19,84.5,64.2,44.3,57.0,49.6,41.0,89,63,35,29.98,29.72,13,3,21,0.00
2013-3-20,70.3,58.8,46.2,51.0,41.5,32.0,91,58,27,30.20,29.96,12,3,19,0.17
2013-3-21,75.0,64.3,52.7,59.0,49.4,31.0,75,59,37,29.96,29.51,21,6,25,0.00
2013-3-22,77.8,66.1,54.1,62.0,55.1,46.0,96,70,43,29.68,29.53,8,3,12,0.00
2013-3-23,81.2,60.2,48.5,58.0,49.5,44.0,91,70,39,29.75,29.51,8,2,11,0.00
2013-3-24,68.0,49.3,37.4,53.0,27.8,19.0,79,47,24,30.14,29.64,17,6,28,0.00
2013-3-25,58.9,44.7,31.0,23.0,18.5,12.0,66,39,16,30.37,30.13,10,2,13,0.00
2013-3-26,65.6,48.6,27.8,24.0,20.7,19.0,74,38,17,30.46,30.21,10,2,14,0.00
2013-3-27,68.8,56.5,39.2,47.0,36.8,20.0,69,49,28,30.24,30.05,17,6,22,0.00
2013-3-28,71.2,61.9,50.0,58.0,53.5,46.0,91,75,60,30.11,30.02,14,5,19,0.00
2013-3-29,76.3,66.7,53.2,57.0,55.8,52.0,95,70,51,30.08,29.95,15,4,19,0.00
2013-3-30,82.0,69.7,61.8,62.0,59.5,57.0,89,71,49,30.02,29.78,13,5,18,0.00
2013-3-31,76.3,67.5,62.7,67.0,60.9,-99.9,93,81,63,29.90,29.78,8,-9,14,0.24